| time (UTC) | temp F | wind direction | speed MPH | gust MPH | rain 1hr in | rain 24hr in | rain mn in | humidity % | barometer mb |
| 20260904075554 | 73 | 226 | 2.0 | 5.0 | 0.00 | 0.08 | 0.00 | 93 | 1010.1 |
| 20260904075055 | 73 | 238 | 2.0 | 5.0 | 0.00 | 0.08 | 0.00 | 93 | 1010.2 |
| 20260904074609 | 73 | 264 | 2.0 | 5.0 | 0.00 | 0.08 | 0.00 | 93 | 1010.3 |
| 20260904074053 | 73 | 23 | 1.0 | 5.0 | 0.00 | 0.08 | 0.00 | 93 | 1010.3 |
| 20260904073553 | 73 | 255 | 2.0 | 5.0 | 0.00 | 0.08 | 0.00 | 93 | 1010.4 |
| 20260904073104 | 73 | 204 | 1.0 | 5.0 | 0.00 | 0.08 | 0.00 | 93 | 1010.4 |
| 20260904072552 | 73 | 242 | 1.0 | 4.0 | 0.00 | 0.08 | 0.00 | 93 | 1010.4 |
| 20260904072053 | 73 | 147 | 1.0 | 3.0 | 0.00 | 0.08 | 0.00 | 93 | 1010.4 |
| 20260904071628 | 73 | 278 | 0.0 | 3.0 | 0.00 | 0.08 | 0.00 | 93 | 1010.5 |
| 20260904071053 | 73 | 0 | 0.0 | 4.0 | 0.00 | 0.08 | 0.00 | 92 | 1010.4 |
| 20260904070553 | 73 | 291 | 1.0 | 4.0 | 0.00 | 0.08 | 0.00 | 92 | 1010.5 |
| 20260904070115 | 74 | 292 | 1.0 | 5.0 | 0.00 | 0.08 | 0.00 | 92 | 1010.6 |
| 20260904065553 | 74 | 240 | 2.0 | 5.0 | 0.00 | 0.08 | 0.00 | 92 | 1010.5 |
| 20260904065053 | 74 | 200 | 1.0 | 5.0 | 0.00 | 0.08 | 0.00 | 93 | 1010.5 |
| 20260904064610 | 74 | 155 | 1.0 | 4.0 | 0.00 | 0.08 | 0.00 | 93 | 1010.7 |
| 20260904064056 | 74 | 308 | 1.0 | 4.0 | 0.00 | 0.08 | 0.00 | 93 | 1010.6 |
| 20260904063555 | 74 | 0 | 0.0 | 4.0 | 0.00 | 0.08 | 0.00 | 93 | 1010.6 |
| 20260904063058 | 73 | 207 | 1.0 | 3.0 | 0.00 | 0.08 | 0.00 | 94 | 1010.6 |
| 20260904062552 | 73 | 213 | 0.0 | 3.0 | 0.00 | 0.08 | 0.00 | 94 | 1010.7 |
| 20260904062053 | 73 | 87 | 1.0 | 3.0 | 0.00 | 0.08 | 0.00 | 94 | 1010.7 |
| 20260904061608 | 73 | 199 | 0.0 | 1.0 | 0.00 | 0.08 | 0.00 | 94 | 1010.7 |
| 20260904061053 | 73 | 192 | 0.0 | 1.0 | 0.00 | 0.08 | 0.00 | 94 | 1010.6 |
| 20260904060553 | 73 | 189 | 0.0 | 1.0 | 0.00 | 0.08 | 0.00 | 94 | 1010.6 |
| 20260904060108 | 73 | 0 | 0.0 | 1.0 | 0.00 | 0.08 | 0.00 | 93 | 1010.6 |
| 20260904055554 | 73 | 141 | 0.0 | 1.0 | 0.00 | 0.08 | 0.00 | 93 | 1010.7 |
| 20260904055052 | 73 | 0 | 0.0 | 1.0 | 0.00 | 0.08 | 0.00 | 93 | 1010.7 |
| 20260904054606 | 73 | 0 | 0.0 | 1.0 | 0.00 | 0.08 | 0.00 | 93 | 1010.7 |
| 20260904054053 | 73 | 224 | 0.0 | 1.0 | 0.00 | 0.08 | 0.00 | 93 | 1010.7 |
| 20260904053553 | 73 | 0 | 0.0 | 1.0 | 0.00 | 0.08 | 0.00 | 93 | 1010.6 |
| 20260904053108 | 73 | 295 | 0.0 | 1.0 | 0.00 | 0.08 | 0.00 | 93 | 1010.7 |
| 20260904052553 | 73 | 58 | 0.0 | 1.0 | 0.00 | 0.08 | 0.00 | 93 | 1010.7 |
| 20260904052053 | 73 | 0 | 0.0 | 1.0 | 0.00 | 0.08 | 0.00 | 93 | 1010.6 |
| 20260904051607 | 73 | 0 | 0.0 | 1.0 | 0.00 | 0.08 | 0.00 | 93 | 1010.6 |
| 20260904051052 | 73 | 0 | 0.0 | 1.0 | 0.00 | 0.08 | 0.00 | 93 | 1010.6 |
| 20260904050554 | 73 | 247 | 0.0 | 2.0 | 0.00 | 0.08 | 0.00 | 93 | 1010.5 |
| 20260904050107 | 73 | 266 | 0.0 | 2.0 | 0.00 | 0.08 | 0.00 | 93 | 1010.6 |
| 20260904045553 | 73 | 0 | 0.0 | 1.0 | 0.00 | 0.08 | 0.08 | 92 | 1010.6 |
| 20260904045056 | 73 | 117 | 0.0 | 1.0 | 0.00 | 0.08 | 0.08 | 92 | 1010.6 |
| 20260904044622 | 73 | 0 | 0.0 | 1.0 | 0.00 | 0.08 | 0.08 | 92 | 1010.7 |
| 20260904044054 | 73 | 193 | 0.0 | 1.0 | 0.00 | 0.08 | 0.08 | 92 | 1010.6 |
| 20260904043552 | 73 | 0 | 0.0 | 1.0 | 0.00 | 0.08 | 0.08 | 92 | 1010.6 |
| 20260904043106 | 74 | 126 | 0.0 | 2.0 | 0.00 | 0.08 | 0.08 | 92 | 1010.6 |
| 20260904042553 | 74 | 0 | 0.0 | 3.0 | 0.00 | 0.08 | 0.08 | 91 | 1010.6 |
| 20260904042052 | 74 | 195 | 0.0 | 3.0 | 0.00 | 0.08 | 0.08 | 91 | 1010.7 |
| 20260904041620 | 74 | 240 | 0.0 | 2.0 | 0.00 | 0.08 | 0.08 | 91 | 1010.6 |
| 20260904041052 | 74 | 203 | 0.0 | 3.0 | 0.00 | 0.08 | 0.08 | 91 | 1010.6 |
| 20260904040552 | 74 | 0 | 0.0 | 3.0 | 0.00 | 0.08 | 0.08 | 91 | 1010.7 |
| 20260904040109 | 74 | 139 | 0.0 | 2.0 | 0.00 | 0.08 | 0.08 | 91 | 1010.7 |
| 20260904035553 | 74 | 0 | 0.0 | 2.0 | 0.00 | 0.08 | 0.08 | 90 | 1010.7 |
| 20260904035052 | 74 | 199 | 0.0 | 2.0 | 0.00 | 0.08 | 0.08 | 90 | 1010.6 |
| 20260904034606 | 74 | 174 | 0.0 | 3.0 | 0.00 | 0.08 | 0.08 | 90 | 1010.7 |
| 20260904034053 | 74 | 229 | 0.0 | 3.0 | 0.00 | 0.08 | 0.08 | 90 | 1010.6 |
| 20260904033553 | 75 | 133 | 0.0 | 1.0 | 0.00 | 0.08 | 0.08 | 90 | 1010.7 |
| 20260904033104 | 75 | 288 | 0.0 | 2.0 | 0.00 | 0.08 | 0.08 | 90 | 1010.6 |
| 20260904032552 | 75 | 286 | 0.0 | 2.0 | 0.00 | 0.08 | 0.08 | 89 | 1010.7 |
| 20260904032052 | 75 | 203 | 1.0 | 2.0 | 0.00 | 0.08 | 0.08 | 89 | 1010.6 |
| 20260904031616 | 75 | 0 | 0.0 | 5.0 | 0.00 | 0.08 | 0.08 | 89 | 1010.6 |
| 20260904031052 | 75 | 193 | 0.0 | 5.0 | 0.00 | 0.08 | 0.08 | 89 | 1010.6 |
| 20260904030552 | 75 | 148 | 1.0 | 3.0 | 0.00 | 0.08 | 0.08 | 89 | 1010.6 |
| 20260904030105 | 75 | 200 | 0.0 | 3.0 | 0.00 | 0.08 | 0.08 | 89 | 1010.6 |
| 20260904025552 | 75 | 108 | 0.0 | 3.0 | 0.00 | 0.08 | 0.08 | 89 | 1010.6 |
| 20260904025052 | 75 | 197 | 0.0 | 3.0 | 0.00 | 0.08 | 0.08 | 89 | 1010.4 |
| 20260904024610 | 75 | 196 | 0.0 | 3.0 | 0.00 | 0.08 | 0.08 | 89 | 1010.5 |
| 20260904024056 | 75 | 152 | 0.0 | 4.0 | 0.00 | 0.08 | 0.08 | 89 | 1010.6 |
| 20260904023551 | 75 | 266 | 0.0 | 4.0 | 0.00 | 0.08 | 0.08 | 89 | 1010.7 |
| 20260904023058 | 75 | 127 | 0.0 | 4.0 | 0.00 | 0.08 | 0.08 | 89 | 1010.6 |
| 20260904022556 | 75 | 167 | 1.0 | 4.0 | 0.00 | 0.08 | 0.08 | 89 | 1010.5 |
| 20260904022053 | 75 | 164 | 0.0 | 4.0 | 0.00 | 0.08 | 0.08 | 89 | 1010.6 |
| 20260904021608 | 75 | 129 | 0.0 | 3.0 | 0.00 | 0.08 | 0.08 | 88 | 1010.6 |
| 20260904021053 | 75 | 165 | 0.0 | 4.0 | 0.00 | 0.08 | 0.08 | 88 | 1010.6 |
| 20260904020556 | 76 | 0 | 1.0 | 4.0 | 0.00 | 0.08 | 0.08 | 88 | 1010.5 |
| 20260904020105 | 76 | 0 | 0.0 | 4.0 | 0.00 | 0.08 | 0.08 | 87 | 1010.5 |
| 20260904015557 | 76 | 157 | 1.0 | 3.0 | 0.00 | 0.08 | 0.08 | 87 | 1010.5 |
| 20260904015056 | 76 | 137 | 0.0 | 2.0 | 0.00 | 0.08 | 0.08 | 86 | 1010.5 |
| 20260904014612 | 77 | 162 | 0.0 | 3.0 | 0.00 | 0.08 | 0.08 | 86 | 1010.4 |
| 20260904014058 | 77 | 224 | 1.0 | 4.0 | 0.00 | 0.08 | 0.08 | 86 | 1010.4 |
| 20260904013556 | 77 | 181 | 2.0 | 4.0 | 0.00 | 0.08 | 0.08 | 85 | 1010.3 |
| 20260904013103 | 77 | 173 | 0.0 | 4.0 | 0.00 | 0.08 | 0.08 | 85 | 1010.3 |
| 20260904012557 | 77 | 0 | 1.0 | 4.0 | 0.00 | 0.08 | 0.08 | 85 | 1010.3 |
| 20260904012056 | 77 | 214 | 1.0 | 4.0 | 0.00 | 0.08 | 0.08 | 85 | 1010.2 |
| 20260904011608 | 77 | 143 | 2.0 | 6.0 | 0.00 | 0.08 | 0.08 | 85 | 1010.2 |
| 20260904011056 | 77 | 185 | 3.0 | 6.0 | 0.00 | 0.08 | 0.08 | 86 | 1010.0 |
| 20260904010556 | 78 | 188 | 3.0 | 6.0 | 0.00 | 0.08 | 0.08 | 86 | 1010.0 |
| 20260904010101 | 78 | 162 | 2.0 | 4.0 | 0.00 | 0.08 | 0.08 | 85 | 1010.1 |
| 20260904005558 | 78 | 178 | 2.0 | 3.0 | 0.00 | 0.08 | 0.08 | 85 | 1010.1 |
| 20260904005056 | 78 | 165 | 2.0 | 4.0 | 0.00 | 0.08 | 0.08 | 85 | 1010.1 |
| 20260904004620 | 78 | 154 | 1.0 | 4.0 | 0.00 | 0.08 | 0.08 | 85 | 1010.2 |
| 20260904004057 | 78 | 158 | 1.0 | 3.0 | 0.00 | 0.08 | 0.08 | 84 | 1010.3 |
| 20260904003556 | 79 | 170 | 1.0 | 3.0 | 0.00 | 0.08 | 0.08 | 84 | 1010.3 |
| 20260904003105 | 79 | 155 | 0.0 | 1.0 | 0.00 | 0.08 | 0.08 | 83 | 1010.4 |
| 20260904002557 | 79 | 0 | 0.0 | 4.0 | 0.00 | 0.08 | 0.08 | 82 | 1010.3 |
| 20260904002057 | 79 | 0 | 0.0 | 6.0 | 0.00 | 0.08 | 0.08 | 82 | 1010.3 |
| 20260904001624 | 80 | 196 | 3.0 | 6.0 | 0.00 | 0.08 | 0.08 | 81 | 1010.3 |
| 20260904001056 | 80 | 164 | 3.0 | 6.0 | 0.00 | 0.08 | 0.08 | 81 | 1010.2 |
| 20260904000557 | 80 | 168 | 1.0 | 5.0 | 0.00 | 0.08 | 0.08 | 80 | 1010.3 |
| 20260904000118 | 81 | 174 | 2.0 | 5.0 | 0.00 | 0.08 | 0.08 | 79 | 1010.2 |
| 20260903235559 | 81 | 192 | 1.0 | 6.0 | 0.00 | 0.08 | 0.08 | 78 | 1010.3 |
| 20260903235056 | 81 | 212 | 0.0 | 6.0 | 0.00 | 0.08 | 0.08 | 77 | 1010.2 |
| 20260903234610 | 82 | 138 | 3.0 | 6.0 | 0.00 | 0.08 | 0.08 | 77 | 1010.1 |
| 20260903234057 | 82 | 146 | 2.0 | 6.0 | 0.00 | 0.08 | 0.08 | 76 | 1009.9 |
| 20260903233557 | 82 | 155 | 3.0 | 8.0 | 0.00 | 0.08 | 0.08 | 75 | 1010.0 |
| 20260903233114 | 83 | 129 | 3.0 | 8.0 | 0.00 | 0.08 | 0.08 | 75 | 1009.9 |
| 20260903232556 | 83 | 217 | 3.0 | 8.0 | 0.00 | 0.08 | 0.08 | 75 | 1009.9 |
| 20260903232057 | 83 | 195 | 3.0 | 8.0 | 0.00 | 0.08 | 0.08 | 74 | 1009.9 |
| 20260903231621 | 83 | 274 | 4.0 | 8.0 | 0.00 | 0.08 | 0.08 | 73 | 1009.9 |
| 20260903231056 | 83 | 196 | 4.0 | 8.0 | 0.00 | 0.08 | 0.08 | 73 | 1009.9 |
| 20260903230557 | 84 | 168 | 3.0 | 8.0 | 0.00 | 0.08 | 0.08 | 72 | 1009.9 |
| 20260903230105 | 84 | 135 | 4.0 | 10.0 | 0.00 | 0.08 | 0.08 | 71 | 1009.9 |
| 20260903225556 | 84 | 129 | 5.0 | 10.0 | 0.00 | 0.08 | 0.08 | 71 | 1009.8 |
| 20260903225057 | 85 | 166 | 4.0 | 9.0 | 0.00 | 0.08 | 0.08 | 70 | 1009.8 |
| 20260903224601 | 85 | 142 | 2.0 | 9.0 | 0.00 | 0.08 | 0.08 | 71 | 1009.8 |
| 20260903224056 | 85 | 207 | 4.0 | 11.0 | 0.00 | 0.08 | 0.08 | 71 | 1009.7 |
| 20260903223556 | 85 | 143 | 6.0 | 11.0 | 0.00 | 0.08 | 0.08 | 71 | 1009.7 |
| 20260903223110 | 85 | 163 | 4.0 | 8.0 | 0.00 | 0.08 | 0.08 | 71 | 1009.7 |
| 20260903222558 | 85 | 183 | 4.0 | 9.0 | 0.00 | 0.08 | 0.08 | 69 | 1009.8 |
| 20260903222056 | 85 | 180 | 5.0 | 9.0 | 0.00 | 0.08 | 0.08 | 70 | 1009.9 |
| 20260903221604 | 85 | 110 | 6.0 | 10.0 | 0.00 | 0.08 | 0.08 | 68 | 1010.0 |
| 20260903221056 | 85 | 150 | 5.0 | 10.0 | 0.00 | 0.08 | 0.08 | 69 | 1010.0 |
| 20260903220556 | 84 | 102 | 5.0 | 10.0 | 0.00 | 0.08 | 0.08 | 69 | 1010.2 |
| 20260903220105 | 84 | 138 | 4.0 | 9.0 | 0.00 | 0.08 | 0.08 | 70 | 1010.1 |
| 20260903215557 | 84 | 180 | 2.0 | 8.0 | 0.00 | 0.08 | 0.08 | 71 | 1010.1 |
| 20260903215058 | 84 | 219 | 3.0 | 8.0 | 0.00 | 0.08 | 0.08 | 70 | 1010.2 |
| 20260903214606 | 84 | 147 | 5.0 | 10.0 | 0.00 | 0.08 | 0.08 | 68 | 1010.2 |
| 20260903214057 | 84 | 141 | 4.0 | 10.0 | 0.00 | 0.08 | 0.08 | 69 | 1010.1 |
| 20260903213556 | 84 | 184 | 3.0 | 10.0 | 0.00 | 0.08 | 0.08 | 67 | 1010.0 |
| 20260903213107 | 85 | 188 | 3.0 | 11.0 | 0.00 | 0.08 | 0.08 | 67 | 1010.0 |
| 20260903212556 | 85 | 178 | 3.0 | 11.0 | 0.00 | 0.08 | 0.08 | 66 | 1010.1 |
| 20260903212053 | 86 | 207 | 3.0 | 11.0 | 0.00 | 0.08 | 0.08 | 65 | 1010.1 |
| 20260903211603 | 86 | 122 | 3.0 | 11.0 | 0.00 | 0.08 | 0.08 | 64 | 1010.1 |
| 20260903211056 | 86 | 114 | 5.0 | 9.0 | 0.00 | 0.08 | 0.08 | 66 | 1010.1 |
| 20260903210559 | 86 | 191 | 4.0 | 10.0 | 0.00 | 0.08 | 0.08 | 67 | 1009.9 |
| 20260903205556 | 86 | 243 | 2.0 | 9.0 | 0.00 | 0.08 | 0.08 | 65 | 1010.4 |
| 20260903205058 | 85 | 127 | 3.0 | 9.0 | 0.00 | 0.08 | 0.08 | 67 | 1010.3 |
| 20260903204603 | 85 | 148 | 5.0 | 12.0 | 0.00 | 0.08 | 0.08 | 65 | 1010.3 |
| 20260903204055 | 85 | 106 | 4.0 | 12.0 | 0.00 | 0.08 | 0.08 | 67 | 1010.4 |
| 20260903203556 | 85 | 176 | 3.0 | 11.0 | 0.00 | 0.08 | 0.08 | 66 | 1010.4 |
| 20260903203107 | 85 | 142 | 4.0 | 11.0 | 0.00 | 0.08 | 0.08 | 66 | 1010.3 |
| 20260903202556 | 85 | 187 | 4.0 | 12.0 | 0.00 | 0.08 | 0.08 | 65 | 1010.3 |
| 20260903202057 | 85 | 174 | 4.0 | 13.0 | 0.00 | 0.08 | 0.08 | 66 | 1010.6 |
| 20260903201607 | 85 | 205 | 7.0 | 13.0 | 0.00 | 0.08 | 0.08 | 64 | 1010.4 |
| 20260903201057 | 85 | 173 | 7.0 | 13.0 | 0.00 | 0.08 | 0.08 | 64 | 1010.2 |
| 20260903200556 | 85 | 207 | 6.0 | 11.0 | 0.00 | 0.08 | 0.08 | 67 | 1010.6 |
| 20260903200104 | 85 | 165 | 5.0 | 11.0 | 0.00 | 0.08 | 0.08 | 65 | 1010.8 |
| 20260903195556 | 85 | 215 | 5.0 | 10.0 | 0.00 | 0.08 | 0.08 | 63 | 1010.9 |
| 20260903195057 | 85 | 151 | 3.0 | 12.0 | 0.00 | 0.08 | 0.08 | 63 | 1010.9 |
| 20260903194559 | 85 | 180 | 7.0 | 12.0 | 0.00 | 0.08 | 0.08 | 64 | 1010.7 |
| 20260903194056 | 85 | 180 | 7.0 | 12.0 | 0.00 | 0.08 | 0.08 | 63 | 1010.8 |
| 20260903193555 | 85 | 154 | 6.0 | 12.0 | 0.00 | 0.08 | 0.08 | 63 | 1010.9 |
| 20260903193106 | 85 | 153 | 5.0 | 11.0 | 0.00 | 0.08 | 0.08 | 63 | 1010.9 |
| 20260903192555 | 85 | 173 | 4.0 | 11.0 | 0.00 | 0.08 | 0.08 | 64 | 1011.0 |
| 20260903192056 | 84 | 146 | 5.0 | 11.0 | 0.00 | 0.08 | 0.08 | 64 | 1011.0 |
| 20260903191603 | 83 | 126 | 6.0 | 11.0 | 0.00 | 0.08 | 0.08 | 65 | 1010.9 |
| 20260903191057 | 84 | 185 | 6.0 | 10.0 | 0.00 | 0.08 | 0.08 | 64 | 1010.9 |
| 20260903190600 | 84 | 158 | 5.0 | 13.0 | 0.00 | 0.08 | 0.08 | 63 | 1010.9 |
| 20260903190104 | 84 | 113 | 8.0 | 13.0 | 0.00 | 0.08 | 0.08 | 64 | 1010.9 |
| 20260903185558 | 84 | 148 | 8.0 | 13.0 | 0.00 | 0.08 | 0.08 | 62 | 1010.9 |
| 20260903185057 | 84 | 153 | 6.0 | 10.0 | 0.00 | 0.08 | 0.08 | 64 | 1011.1 |
| 20260903184608 | 84 | 112 | 4.0 | 11.0 | 0.00 | 0.08 | 0.08 | 65 | 1011.0 |
| 20260903184056 | 83 | 141 | 4.0 | 11.0 | 0.00 | 0.08 | 0.08 | 64 | 1011.0 |
| 20260903183556 | 83 | 130 | 3.0 | 15.0 | 0.00 | 0.08 | 0.08 | 65 | 1011.3 |
| 20260903183106 | 83 | 170 | 4.0 | 15.0 | 0.00 | 0.08 | 0.08 | 64 | 1011.3 |
| 20260903182557 | 83 | 149 | 6.0 | 11.0 | 0.00 | 0.08 | 0.08 | 63 | 1011.4 |
| 20260903182053 | 84 | 160 | 4.0 | 11.0 | 0.00 | 0.08 | 0.08 | 63 | 1011.5 |
| 20260903181601 | 84 | 144 | 5.0 | 11.0 | 0.00 | 0.08 | 0.08 | 62 | 1011.5 |
| 20260903181055 | 84 | 179 | 5.0 | 10.0 | 0.00 | 0.08 | 0.08 | 63 | 1011.5 |
| 20260903180555 | 85 | 134 | 4.0 | 10.0 | 0.00 | 0.08 | 0.08 | 61 | 1011.6 |
| 20260903180119 | 85 | 148 | 3.0 | 13.0 | 0.00 | 0.08 | 0.08 | 65 | 1011.7 |
| 20260903175552 | 84 | 233 | 3.0 | 13.0 | 0.00 | 0.08 | 0.08 | 66 | 1011.7 |
| 20260903175056 | 84 | 142 | 5.0 | 13.0 | 0.00 | 0.08 | 0.08 | 63 | 1011.5 |
| 20260903174558 | 84 | 176 | 5.0 | 8.0 | 0.00 | 0.08 | 0.08 | 65 | 1011.4 |
| 20260903174057 | 84 | 205 | 2.0 | 8.0 | 0.00 | 0.08 | 0.08 | 68 | 1011.4 |
| 20260903173559 | 83 | 180 | 2.0 | 8.0 | 0.01 | 0.08 | 0.08 | 69 | 1011.2 |
| 20260903173107 | 82 | 197 | 2.0 | 11.0 | 0.02 | 0.08 | 0.08 | 69 | 1011.4 |
| 20260903172556 | 82 | 213 | 3.0 | 11.0 | 0.02 | 0.08 | 0.08 | 69 | 1011.5 |
| 20260903172055 | 82 | 135 | 4.0 | 11.0 | 0.02 | 0.08 | 0.08 | 68 | 1011.5 |
| 20260903171604 | 82 | 134 | 3.0 | 9.0 | 0.02 | 0.08 | 0.08 | 70 | 1011.5 |
| 20260903171055 | 82 | 131 | 3.0 | 9.0 | 0.02 | 0.08 | 0.08 | 71 | 1011.4 |
| 20260903170555 | 82 | 231 | 4.0 | 8.0 | 0.02 | 0.08 | 0.08 | 70 | 1011.4 |
| 20260903165556 | 82 | 152 | 0.0 | 2.0 | 0.02 | 0.08 | 0.08 | 76 | 1011.5 |
| 20260903165057 | 81 | 0 | 0.0 | 0.0 | 0.02 | 0.08 | 0.08 | 78 | 1011.6 |
| 20260903164609 | 80 | 0 | 0.0 | 3.0 | 0.02 | 0.08 | 0.08 | 78 | 1011.7 |
| 20260903164055 | 80 | 0 | 0.0 | 3.0 | 0.02 | 0.08 | 0.08 | 75 | 1011.8 |
| 20260903163555 | 81 | 0 | 1.0 | 3.0 | 0.01 | 0.07 | 0.07 | 73 | 1011.7 |
| 20260903163106 | 82 | 241 | 1.0 | 4.0 | 0.00 | 0.06 | 0.06 | 72 | 1011.5 |
| 20260903162556 | 82 | 0 | 0.0 | 5.0 | 0.00 | 0.06 | 0.06 | 68 | 1011.7 |
| 20260903162056 | 82 | 143 | 0.0 | 5.0 | 0.00 | 0.06 | 0.06 | 70 | 1011.6 |
| 20260903161605 | 82 | 127 | 2.0 | 5.0 | 0.00 | 0.06 | 0.06 | 69 | 1011.5 |
| 20260903161055 | 82 | 216 | 1.0 | 4.0 | 0.00 | 0.06 | 0.06 | 72 | 1011.5 |
| 20260903160555 | 81 | 146 | 2.0 | 4.0 | 0.00 | 0.06 | 0.06 | 75 | 1011.5 |
| 20260903160109 | 80 | 0 | 1.0 | 5.0 | 0.00 | 0.06 | 0.06 | 75 | 1011.6 |
| 20260903155555 | 79 | 156 | 2.0 | 6.0 | 0.00 | 0.06 | 0.06 | 78 | 1011.6 |
| 20260903155056 | 78 | 141 | 1.0 | 6.0 | 0.00 | 0.06 | 0.06 | 80 | 1011.6 |
| 20260903154606 | 77 | 144 | 2.0 | 7.0 | 0.00 | 0.06 | 0.06 | 80 | 1011.6 |
| 20260903154056 | 76 | 213 | 2.0 | 7.0 | 0.00 | 0.06 | 0.06 | 80 | 1011.7 |
| 20260903153556 | 76 | 257 | 4.0 | 7.0 | 0.00 | 0.06 | 0.06 | 79 | 1011.6 |
| 20260903153112 | 76 | 209 | 2.0 | 7.0 | 0.00 | 0.06 | 0.06 | 81 | 1011.7 |
| 20260903152556 | 76 | 193 | 1.0 | 5.0 | 0.00 | 0.06 | 0.06 | 82 | 1011.8 |
| 20260903152055 | 75 | 148 | 1.0 | 5.0 | 0.00 | 0.06 | 0.06 | 82 | 1011.7 |
| 20260903151605 | 75 | 248 | 1.0 | 7.0 | 0.00 | 0.06 | 0.06 | 82 | 1011.6 |
| 20260903151057 | 75 | 67 | 1.0 | 7.0 | 0.00 | 0.06 | 0.06 | 82 | 1011.7 |
| 20260903150555 | 75 | 148 | 1.0 | 7.0 | 0.00 | 0.06 | 0.06 | 82 | 1011.6 |
| 20260903150111 | 75 | 126 | 3.0 | 6.0 | 0.00 | 0.06 | 0.06 | 84 | 1011.5 |
| 20260903145555 | 74 | 138 | 2.0 | 7.0 | 0.00 | 0.06 | 0.06 | 84 | 1011.3 |
| 20260903145053 | 74 | 174 | 3.0 | 7.0 | 0.00 | 0.06 | 0.06 | 85 | 1011.4 |
| 20260903144557 | 73 | 135 | 4.0 | 9.0 | 0.00 | 0.06 | 0.06 | 86 | 1011.6 |
| 20260903144056 | 72 | 147 | 5.0 | 9.0 | 0.00 | 0.06 | 0.06 | 87 | 1011.6 |
| 20260903143555 | 71 | 174 | 3.0 | 8.0 | 0.00 | 0.06 | 0.06 | 89 | 1011.5 |
| 20260903143106 | 71 | 184 | 4.0 | 7.0 | 0.00 | 0.06 | 0.06 | 88 | 1011.6 |
| 20260903142556 | 71 | 167 | 2.0 | 6.0 | 0.00 | 0.06 | 0.06 | 88 | 1011.7 |
| 20260903142056 | 71 | 250 | 1.0 | 6.0 | 0.00 | 0.06 | 0.06 | 88 | 1011.8 |
| 20260903141603 | 71 | 141 | 1.0 | 6.0 | 0.00 | 0.06 | 0.06 | 87 | 1011.8 |
| 20260903141057 | 72 | 190 | 1.0 | 6.0 | 0.00 | 0.06 | 0.06 | 87 | 1011.7 |
| 20260903140555 | 72 | 208 | 2.0 | 7.0 | 0.00 | 0.06 | 0.06 | 87 | 1011.6 |
| 20260903140105 | 72 | 145 | 3.0 | 9.0 | 0.00 | 0.06 | 0.06 | 86 | 1011.4 |
| 20260903135555 | 72 | 193 | 3.0 | 9.0 | 0.00 | 0.06 | 0.06 | 86 | 1011.3 |
| 20260903135055 | 72 | 159 | 3.0 | 8.0 | 0.00 | 0.06 | 0.06 | 86 | 1011.2 |
| 20260903134556 | 72 | 143 | 5.0 | 8.0 | 0.00 | 0.06 | 0.06 | 86 | 1011.1 |
| 20260903134054 | 72 | 211 | 4.0 | 9.0 | 0.00 | 0.06 | 0.06 | 86 | 1011.5 |
| 20260903133556 | 72 | 132 | 4.0 | 9.0 | 0.00 | 0.06 | 0.06 | 87 | 1011.4 |
| 20260903133106 | 71 | 172 | 4.0 | 7.0 | 0.01 | 0.06 | 0.06 | 87 | 1011.5 |
| 20260903132555 | 71 | 149 | 4.0 | 9.0 | 0.03 | 0.06 | 0.06 | 88 | 1011.6 |
| 20260903132055 | 70 | 160 | 4.0 | 9.0 | 0.03 | 0.06 | 0.06 | 89 | 1011.7 |
| 20260903131604 | 70 | 205 | 4.0 | 6.0 | 0.03 | 0.06 | 0.06 | 89 | 1011.7 |
| 20260903131055 | 70 | 169 | 3.0 | 6.0 | 0.03 | 0.06 | 0.06 | 89 | 1011.9 |
| 20260903130559 | 70 | 198 | 2.0 | 6.0 | 0.03 | 0.06 | 0.06 | 89 | 1012.1 |
| 20260903130131 | 70 | 143 | 0.0 | 4.0 | 0.03 | 0.06 | 0.06 | 89 | 1012.2 |
| 20260903125555 | 70 | 0 | 2.0 | 5.0 | 0.03 | 0.06 | 0.06 | 88 | 1012.5 |
| 20260903125052 | 70 | 122 | 2.0 | 5.0 | 0.03 | 0.06 | 0.06 | 88 | 1012.0 |
| 20260903124609 | 70 | 136 | 1.0 | 6.0 | 0.03 | 0.06 | 0.06 | 88 | 1012.0 |
| 20260903124055 | 70 | 199 | 1.0 | 7.0 | 0.03 | 0.06 | 0.06 | 87 | 1012.4 |
| 20260903123555 | 70 | 257 | 3.0 | 7.0 | 0.03 | 0.06 | 0.06 | 87 | 1012.5 |
| 20260903123109 | 70 | 195 | 2.0 | 6.0 | 0.02 | 0.05 | 0.05 | 87 | 1012.4 |
| 20260903122555 | 70 | 106 | 1.0 | 7.0 | 0.00 | 0.03 | 0.03 | 87 | 1012.4 |
| 20260903122054 | 70 | 129 | 2.0 | 8.0 | 0.00 | 0.03 | 0.03 | 87 | 1012.7 |
| 20260903121601 | 71 | 300 | 2.0 | 8.0 | 0.00 | 0.03 | 0.03 | 87 | 1012.6 |
| 20260903121055 | 71 | 243 | 2.0 | 8.0 | 0.00 | 0.03 | 0.03 | 86 | 1012.4 |
| 20260903120556 | 71 | 240 | 2.0 | 8.0 | 0.00 | 0.03 | 0.03 | 86 | 1012.0 |
| 20260903120106 | 71 | 49 | 3.0 | 9.0 | 0.00 | 0.03 | 0.03 | 86 | 1012.3 |
| 20260903115556 | 71 | 112 | 3.0 | 9.0 | 0.00 | 0.03 | 0.03 | 86 | 1012.5 |
| 20260903115054 | 71 | 343 | 3.0 | 9.0 | 0.00 | 0.03 | 0.03 | 86 | 1012.4 |
| 20260903114604 | 71 | 72 | 3.0 | 9.0 | 0.00 | 0.03 | 0.03 | 86 | 1012.4 |
| 20260903114056 | 71 | 248 | 3.0 | 8.0 | 0.00 | 0.03 | 0.03 | 86 | 1012.4 |
| 20260903113556 | 71 | 37 | 2.0 | 9.0 | 0.00 | 0.03 | 0.03 | 85 | 1012.5 |
| 20260903113106 | 71 | 176 | 4.0 | 9.0 | 0.00 | 0.03 | 0.03 | 85 | 1012.6 |
| 20260903112554 | 71 | 177 | 3.0 | 8.0 | 0.00 | 0.03 | 0.03 | 86 | 1012.5 |
| 20260903112054 | 71 | 274 | 1.0 | 7.0 | 0.00 | 0.03 | 0.03 | 86 | 1012.3 |
| 20260903111621 | 71 | 262 | 2.0 | 11.0 | 0.00 | 0.03 | 0.03 | 87 | 1012.2 |
| 20260903111053 | 71 | 284 | 3.0 | 11.0 | 0.00 | 0.03 | 0.03 | 87 | 1012.0 |
| 20260903110555 | 71 | 236 | 3.0 | 9.0 | 0.00 | 0.03 | 0.03 | 87 | 1012.0 |
| 20260903110126 | 71 | 206 | 2.0 | 11.0 | 0.00 | 0.03 | 0.03 | 87 | 1011.8 |
| 20260903105555 | 71 | 82 | 3.0 | 11.0 | 0.00 | 0.03 | 0.03 | 87 | 1011.9 |
| 20260903105056 | 71 | 101 | 4.0 | 12.0 | 0.00 | 0.03 | 0.03 | 87 | 1012.1 |
| 20260903104605 | 71 | 200 | 5.0 | 13.0 | 0.01 | 0.03 | 0.03 | 87 | 1012.3 |
| 20260903104055 | 72 | 160 | 5.0 | 13.0 | 0.02 | 0.03 | 0.03 | 87 | 1012.3 |
| 20260903103555 | 71 | 141 | 6.0 | 13.0 | 0.03 | 0.03 | 0.03 | 87 | 1012.3 |
| 20260903103107 | 72 | 172 | 4.0 | 10.0 | 0.03 | 0.03 | 0.03 | 88 | 1012.3 |
| 20260903102555 | 72 | 236 | 4.0 | 10.0 | 0.03 | 0.03 | 0.03 | 87 | 1012.3 |
| 20260903102058 | 71 | 238 | 4.0 | 7.0 | 0.03 | 0.03 | 0.03 | 88 | 1012.3 |
| 20260903101608 | 71 | 262 | 3.0 | 7.0 | 0.03 | 0.03 | 0.03 | 89 | 1012.3 |
| 20260903101057 | 72 | 268 | 4.0 | 11.0 | 0.03 | 0.03 | 0.03 | 89 | 1012.4 |
| 20260903100555 | 72 | 124 | 5.0 | 16.0 | 0.03 | 0.03 | 0.03 | 89 | 1012.5 |
| 20260903100057 | 72 | 267 | 7.0 | 16.0 | 0.03 | 0.03 | 0.03 | 89 | 1011.9 |
| 20260903095554 | 72 | 8 | 9.0 | 17.0 | 0.03 | 0.03 | 0.03 | 90 | 1012.2 |
| 20260903095056 | 71 | 231 | 8.0 | 17.0 | 0.02 | 0.02 | 0.02 | 91 | 1012.3 |
| 20260903094607 | 71 | 304 | 9.0 | 17.0 | 0.02 | 0.02 | 0.02 | 93 | 1012.4 |
| 20260903094055 | 71 | 185 | 3.0 | 7.0 | 0.01 | 0.01 | 0.01 | 93 | 1012.1 |
| 20260903093556 | 71 | 86 | 1.0 | 2.0 | 0.00 | 0.00 | 0.00 | 94 | 1012.0 |
| 20260903093105 | 71 | 0 | 0.0 | 1.0 | 0.00 | 0.00 | 0.00 | 94 | 1011.8 |
| 20260903092555 | 71 | 0 | 0.0 | 1.0 | 0.00 | 0.00 | 0.00 | 94 | 1011.9 |
| 20260903092057 | 70 | 0 | 0.0 | 1.0 | 0.00 | 0.00 | 0.00 | 94 | 1011.9 |
| 20260903091559 | 70 | 0 | 0.0 | 3.0 | 0.00 | 0.00 | 0.00 | 94 | 1011.6 |
| 20260903091058 | 70 | 141 | 0.0 | 4.0 | 0.00 | 0.00 | 0.00 | 94 | 1011.3 |
| 20260903090555 | 70 | 146 | 2.0 | 4.0 | 0.00 | 0.00 | 0.00 | 95 | 1011.0 |
| 20260903085556 | 70 | 167 | 0.0 | 0.0 | 0.00 | 0.00 | 0.00 | 94 | 1011.3 |
| 20260903085054 | 70 | 0 | 0.0 | 0.0 | 0.00 | 0.00 | 0.00 | 94 | 1011.3 |
| 20260903084604 | 70 | 0 | 0.0 | 1.0 | 0.00 | 0.00 | 0.00 | 94 | 1011.4 |
| 20260903084054 | 70 | 0 | 0.0 | 1.0 | 0.00 | 0.00 | 0.00 | 94 | 1011.4 |
| 20260903083558 | 70 | 0 | 0.0 | 2.0 | 0.00 | 0.00 | 0.00 | 95 | 1011.4 |
| 20260903083105 | 70 | 153 | 0.0 | 3.0 | 0.00 | 0.00 | 0.00 | 95 | 1011.5 |
| 20260903082555 | 69 | 187 | 1.0 | 3.0 | 0.00 | 0.00 | 0.00 | 95 | 1011.4 |
| 20260903082055 | 69 | 122 | 0.0 | 3.0 | 0.00 | 0.00 | 0.00 | 95 | 1011.3 |
| 20260903081619 | 69 | 139 | 1.0 | 3.0 | 0.00 | 0.00 | 0.00 | 95 | 1011.3 |
| 20260903081051 | 69 | 129 | 0.0 | 1.0 | 0.00 | 0.00 | 0.00 | 94 | 1011.2 |
| 20260903080558 | 69 | 130 | 0.0 | 1.0 | 0.00 | 0.00 | 0.00 | 94 | 1011.2 |
| 20260903080106 | 69 | 0 | 0.0 | 1.0 | 0.00 | 0.00 | 0.00 | 94 | 1011.2 |